[[{"header":{"parameterUnit":"m.s-1","parameterCategory":1,"la1":30.2992,"la2":30.254,"lo1":-89.0895,"lo2":-89.0443,"dy":0.0025,"dx":0.0025,"nx":19,"ny":19,"refTime":"2026-04-29T09:00:00:Z","depth":0,"parameterNumber":2,"parameterNumberName":"U-component_of_WINDS"},"data":[0,0,0,4.0243,4.0246,4.039,4.0391,4.0579,4.0581,0,0,0,0,0,0,0,0,0,0,0,4.0206,4.0208,4.0242,4.0246,4.039,4.0391,4.0579,4.0581,0,0,0,0,0,0,0,0,0,0,0,4.0205,4.0207,4.0209,4.0247,4.039,4.0391,4.0578,4.0467,0,0,0,0,0,0,0,0,0,0,4.0326,4.0299,4.0207,4.0209,4.0248,4.039,4.0391,4.0462,4.0474,4.0516,0,4.056,0,4.0574,4.0594,4.0595,0,0,0,4.024,4.0289,4.0323,4.0209,4.0249,4.039,4.0324,4.0468,4.0483,4.0533,4.0562,4.0569,4.0577,4.0595,4.0596,4.0868,4.0869,0,0,4.0232,4.0235,4.0313,4.0332,4.0315,4.0319,4.0328,4.0477,4.0507,4.0563,4.0573,4.058,4.0597,4.0598,4.0866,4.0868,0,0,0,4.0213,4.0229,4.0259,4.0325,4.0351,4.0323,4.0334,4.0501,4.051,4.0575,4.0582,4.0598,4.06,4.0865,4.0867,4.0945,0,0,0,4.0208,4.0218,4.0256,4.0259,4.0348,4.0429,4.0355,4.05,4.0517,4.0581,4.0598,4.0602,4.0863,4.0866,4.094,4.0981,0,0,0,4.0194,4.0216,4.024,4.0258,4.0321,4.0426,4.0444,4.0504,4.0521,4.0595,4.0603,4.0862,4.0865,4.0935,4.0973,4.1052,0,0,0,4.0179,4.0307,4.0241,4.0386,4.032,4.0475,4.0443,4.0558,4.0631,4.0599,4.0863,4.0867,4.0933,4.0967,4.1046,4.1118,4.1149,0,0,4.0341,4.0327,4.0412,4.0357,4.0525,4.0453,4.0631,4.0693,4.0697,4.0809,4.0816,4.0941,4.0972,4.1051,4.1323,4.1347,0,0,0,4.0464,4.0525,4.0569,4.0639,4.0692,4.0739,4.0776,4.0798,4.0894,4.0757,4.0992,4.101,4.1056,4.109,4.1111,4.1148,4.0883,4.0883,4.0883,4.0695,4.0695,4.0834,4.0851,4.0919,4.0955,4.1009,4.1045,4.1023,4.1078,4.1111,4.1277,4.1317,4.1333,4.1372,4.1151,4.1151,4.1151,4.1151,4.0931,4.1016,4.0985,4.1109,4.1106,4.1209,4.1246,4.1227,4.132,4.1253,4.1293,4.1218,4.136,4.1394,4.1157,4.1156,4.1155,4.1155,4.1154,4.1081,4.1121,4.1149,4.125,4.1327,4.1337,4.1428,4.1422,4.1416,4.1456,4.1488,4.1487,4.1482,4.1472,4.1473,4.1474,4.1474,4.1474,4.1475,4.1225,4.1253,4.1332,4.1399,4.1442,4.1498,4.1534,4.1575,4.1618,4.1606,4.1606,4.1577,4.1375,4.1323,4.1484,4.1482,4.1481,4.148,4.1479,4.146,4.1406,4.1528,4.1572,4.1647,4.1722,4.1714,4.1798,4.1831,4.1875,4.1837,4.169,4.1673,4.1656,4.1613,4.1839,4.1839,4.1839,4.1839,4.1585,4.1577,4.1699,4.1769,4.1836,4.1841,4.1973,4.2001,4.2021,4.204,4.2007,4.195,4.1933,4.1926,4.1903,4.1863,4.2147,4.2147,4.2148,4.1728,4.1726,4.1843,4.1864,4.1923,4.1971,4.2095,4.2173,4.2184,4.216,4.2054,4.2041,4.1949,4.192,4.1892,4.1857,4.1782,0,0]},{"header":{"parameterUnit":"m.s-1","parameterCategory":1,"la1":30.2992,"la2":30.254,"lo1":-89.0895,"lo2":-89.0443,"dy":0.0025,"dx":0.0025,"nx":19,"ny":19,"refTime":"2026-04-29T09:00:00:Z","depth":0,"parameterNumber":3,"parameterNumberName":"V-component_of_WINDS"},"data":[0,0,0,1.9787,1.9791,1.9987,1.9988,2.0229,2.0231,0,0,0,0,0,0,0,0,0,0,0,1.9723,1.9724,1.9786,1.9791,1.9987,1.9988,2.0228,2.0231,0,0,0,0,0,0,0,0,0,0,0,1.9722,1.9724,1.9726,1.9792,1.9987,1.9988,2.0228,2.0084,0,0,0,0,0,0,0,0,0,0,1.9895,1.9831,1.9724,1.9726,1.9793,1.9986,1.9988,2.0077,2.0093,2.0136,0,2.0173,0,2.0206,2.0246,2.0247,0,0,0,1.9796,1.9817,1.9875,1.9726,1.9795,1.9986,1.99,2.0086,2.0104,2.0157,2.0177,2.0186,2.021,2.0248,2.0249,2.0485,2.0485,0,0,1.9785,1.9755,1.9863,1.9886,1.9856,1.9893,1.9906,2.0097,2.0116,2.0178,2.0192,2.0214,2.0249,2.0251,2.0484,2.0485,0,0,0,1.9751,1.9747,1.9801,1.9876,1.9912,1.9899,1.9913,2.0108,2.0128,2.0194,2.0216,2.0251,2.0254,2.0483,2.0484,2.05,0,0,0,1.9744,1.9728,1.9796,1.978,1.9908,2.0013,1.992,2.0114,2.0137,2.0215,2.0251,2.0256,2.0482,2.0484,2.0498,2.0514,0,0,0,1.9712,1.9724,1.975,1.9778,1.9861,2.001,2.0041,2.012,2.015,2.0247,2.0257,2.0481,2.0483,2.0496,2.051,2.0568,0,0,0,1.9669,1.9762,1.975,1.9862,1.9859,2.0018,2.004,2.016,2.0245,2.0252,2.0482,2.0484,2.0495,2.0508,2.0565,2.0612,2.0628,0,0,1.977,1.9773,1.9841,1.9836,1.999,1.9991,2.0147,2.0253,2.0289,2.0417,2.0423,2.0499,2.051,2.0567,2.0727,2.074,0,0,0,1.9863,1.9912,1.9959,2.0039,2.0121,2.0194,2.0278,2.0317,2.0428,2.0349,2.0535,2.0543,2.0578,2.0601,2.0612,2.0644,2.0493,2.0493,2.0493,1.9965,2.0005,2.0121,2.0185,2.0262,2.0348,2.0414,2.0481,2.05,2.0543,2.0582,2.0674,2.0701,2.0709,2.0742,2.0609,2.0609,2.0609,2.0609,2.0117,2.0192,2.0214,2.0335,2.0377,2.0478,2.0564,2.0574,2.0675,2.0649,2.0681,2.065,2.0722,2.0753,2.0611,2.0611,2.061,2.061,2.061,2.0188,2.0232,2.0277,2.0396,2.0483,2.0544,2.064,2.0675,2.0708,2.074,2.0786,2.0786,2.0791,2.0759,2.0759,2.076,2.076,2.076,2.076,2.0246,2.0296,2.0373,2.0467,2.0523,2.06,2.0686,2.0742,2.0812,2.083,2.0831,2.0846,2.0721,2.0689,2.0766,2.0765,2.0764,2.0764,2.0763,2.0387,2.036,2.0478,2.0534,2.0648,2.0731,2.0774,2.0884,2.0935,2.0981,2.0988,2.089,2.0896,2.0888,2.0862,2.0978,2.0978,2.0978,2.0978,2.0449,2.0454,2.0583,2.0669,2.0758,2.0808,2.094,2.1007,2.1073,2.1107,2.1095,2.1063,2.1053,2.1065,2.1053,2.103,2.1187,2.1187,2.1187,2.0538,2.0554,2.066,2.0724,2.0815,2.0893,2.1018,2.1116,2.1185,2.1196,2.1135,2.1126,2.1075,2.1057,2.1068,2.1048,2.1006,0,0]}]]